| time (UTC) | temp F | wind direction | speed knots | gust knots | rain 1hr in | rain 24hr in | rain mn in | humidity % | barometer mb |
| 20260506165242 | 85 | 0.0 | 0.0 | 0.00 | 0.00 | 0.00 | 100 | 917.1 | |
| 20260506164742 | 86 | 0.0 | 0.0 | 0.00 | 0.00 | 0.00 | 100 | 917.2 | |
| 20260506164242 | 86 | 0.0 | 0.0 | 0.00 | 0.00 | 0.00 | 100 | 917.1 | |
| 20260506163742 | 86 | 0.0 | 0.0 | 0.00 | 0.00 | 0.00 | 100 | 917.2 | |
| 20260506163242 | 86 | 0.0 | 0.0 | 0.00 | 0.00 | 0.00 | 100 | 917.2 | |
| 20260506162742 | 85 | 0.0 | 0.0 | 0.00 | 0.00 | 0.00 | 100 | 917.3 | |
| 20260506162242 | 87 | 0.0 | 0.0 | 0.00 | 0.00 | 0.00 | 100 | 917.4 | |
| 20260506161742 | 87 | 0.0 | 0.0 | 0.00 | 0.00 | 0.00 | 100 | 917.3 | |
| 20260506161242 | 87 | 0.0 | 0.0 | 0.00 | 0.00 | 0.00 | 100 | 917.4 | |
| 20260506160742 | 87 | 0.0 | 0.0 | 0.00 | 0.00 | 0.00 | 100 | 917.4 | |
| 20260506160242 | 87 | 0.0 | 0.0 | 0.00 | 0.00 | 0.00 | 100 | 917.5 | |
| 20260506155742 | 87 | 0.0 | 0.0 | 0.00 | 0.00 | 0.00 | 100 | 917.5 | |
| 20260506155242 | 86 | 0.0 | 0.0 | 0.00 | 0.00 | 0.00 | 100 | 917.5 | |
| 20260506154742 | 87 | 0.0 | 0.0 | 0.00 | 0.00 | 0.00 | 100 | 917.6 | |
| 20260506154242 | 89 | 0.0 | 0.0 | 0.00 | 0.00 | 0.00 | 100 | 917.5 | |
| 20260506153742 | 89 | 0.0 | 0.0 | 0.00 | 0.00 | 0.00 | 100 | 917.5 | |
| 20260506153242 | 88 | 0.0 | 0.0 | 0.00 | 0.00 | 0.00 | 100 | 917.6 | |
| 20260506152742 | 90 | 0.0 | 0.0 | 0.00 | 0.00 | 0.00 | 98 | 917.5 | |
| 20260506152242 | 89 | 0.0 | 0.0 | 0.00 | 0.00 | 0.00 | 100 | 917.6 | |
| 20260506151742 | 88 | 0.0 | 0.0 | 0.00 | 0.00 | 0.00 | 100 | 917.6 | |
| 20260506151242 | 88 | 0.0 | 0.0 | 0.00 | 0.00 | 0.00 | 100 | 917.6 | |
| 20260506150742 | 88 | 0.0 | 0.0 | 0.00 | 0.00 | 0.00 | 100 | 917.6 | |
| 20260506150242 | 87 | 0.0 | 0.0 | 0.00 | 0.00 | 0.00 | 100 | 917.5 | |
| 20260506145742 | 87 | 0.0 | 0.0 | 0.00 | 0.00 | 0.00 | 100 | 917.5 | |
| 20260506145242 | 88 | 0.0 | 0.0 | 0.00 | 0.00 | 0.00 | 97 | 917.6 | |
| 20260506144742 | 88 | 0.0 | 0.0 | 0.00 | 0.00 | 0.00 | 100 | 917.6 | |
| 20260506144242 | 88 | 0.0 | 0.0 | 0.00 | 0.00 | 0.00 | 97 | 917.5 | |
| 20260506143742 | 88 | 0.0 | 0.0 | 0.00 | 0.00 | 0.00 | 95 | 917.7 | |
| 20260506143242 | 88 | 0.0 | 0.0 | 0.00 | 0.00 | 0.00 | 95 | 917.7 | |
| 20260506142742 | 88 | 0.0 | 0.0 | 0.00 | 0.00 | 0.00 | 94 | 917.6 | |
| 20260506142242 | 88 | 0.0 | 0.0 | 0.00 | 0.00 | 0.00 | 95 | 917.6 | |
| 20260506141742 | 90 | 0.0 | 0.0 | 0.00 | 0.00 | 0.00 | 92 | 917.7 | |
| 20260506141242 | 90 | 0.0 | 0.0 | 0.00 | 0.00 | 0.00 | 90 | 917.7 | |
| 20260506140742 | 90 | 0.0 | 0.0 | 0.00 | 0.00 | 0.00 | 86 | 917.7 | |
| 20260506140242 | 90 | 0.0 | 0.0 | 0.00 | 0.00 | 0.00 | 87 | 917.8 | |
| 20260506135742 | 91 | 0.0 | 0.0 | 0.00 | 0.00 | 0.00 | 84 | 917.8 | |
| 20260506135242 | 92 | 0.0 | 0.0 | 0.00 | 0.00 | 0.00 | 80 | 917.8 | |
| 20260506134742 | 94 | 0.0 | 0.0 | 0.00 | 0.00 | 0.00 | 76 | 917.8 | |
| 20260506134242 | 96 | 0.0 | 0.0 | 0.00 | 0.00 | 0.00 | 72 | 917.8 | |
| 20260506133742 | 94 | 0.0 | 0.0 | 0.00 | 0.00 | 0.00 | 76 | 918.0 | |
| 20260506133242 | 94 | 0.0 | 0.0 | 0.00 | 0.00 | 0.00 | 77 | 918.0 | |
| 20260506132742 | 95 | 0.0 | 0.0 | 0.00 | 0.00 | 0.00 | 75 | 917.9 | |
| 20260506132242 | 94 | 0.0 | 0.0 | 0.00 | 0.00 | 0.00 | 78 | 918.0 | |
| 20260506131742 | 92 | 0.0 | 0.0 | 0.00 | 0.00 | 0.00 | 86 | 918.1 | |
| 20260506131242 | 91 | 0.0 | 0.0 | 0.00 | 0.00 | 0.00 | 84 | 918.2 | |
| 20260506130742 | 92 | 0.0 | 0.0 | 0.00 | 0.00 | 0.00 | 80 | 918.0 | |
| 20260506130242 | 92 | 0.0 | 0.0 | 0.00 | 0.00 | 0.00 | 80 | 918.2 | |
| 20260506125742 | 94 | 0.0 | 0.0 | 0.00 | 0.00 | 0.00 | 75 | 918.2 | |
| 20260506125242 | 94 | 0.0 | 0.0 | 0.00 | 0.00 | 0.00 | 73 | 918.3 | |
| 20260506124742 | 93 | 0.0 | 0.0 | 0.00 | 0.00 | 0.00 | 76 | 918.3 | |
| 20260506124242 | 94 | 0.0 | 0.0 | 0.00 | 0.00 | 0.00 | 71 | 918.5 | |
| 20260506123742 | 97 | 0.0 | 0.0 | 0.00 | 0.00 | 0.00 | 64 | 918.1 | |
| 20260506123242 | 97 | 0.0 | 0.0 | 0.00 | 0.00 | 0.00 | 59 | 918.4 | |
| 20260506122742 | 101 | 0.0 | 0.0 | 0.00 | 0.00 | 0.00 | 60 | 918.2 | |
| 20260506122242 | 100 | 0.0 | 0.0 | 0.00 | 0.00 | 0.00 | 59 | 918.2 | |
| 20260506121742 | 103 | 0.0 | 0.0 | 0.00 | 0.00 | 0.00 | 61 | 918.1 | |
| 20260506121242 | 102 | 0.0 | 0.0 | 0.00 | 0.00 | 0.00 | 60 | 918.0 | |
| 20260506120742 | 100 | 0.0 | 0.0 | 0.00 | 0.00 | 0.00 | 59 | 918.1 | |
| 20260506120242 | 98 | 0.0 | 0.0 | 0.00 | 0.00 | 0.00 | 70 | 918.2 | |
| 20260506115742 | 95 | 0.0 | 0.0 | 0.00 | 0.00 | 0.00 | 70 | 918.4 | |
| 20260506115242 | 96 | 0.0 | 0.0 | 0.00 | 0.00 | 0.00 | 76 | 918.1 | |
| 20260506114742 | 94 | 0.0 | 0.0 | 0.00 | 0.00 | 0.00 | 79 | 918.3 | |
| 20260506114242 | 92 | 0.0 | 0.0 | 0.00 | 0.00 | 0.00 | 74 | 918.4 | |
| 20260506113742 | 93 | 0.0 | 0.0 | 0.00 | 0.00 | 0.00 | 71 | 918.2 | |
| 20260506113242 | 92 | 0.0 | 0.0 | 0.00 | 0.00 | 0.00 | 73 | 918.4 | |
| 20260506112742 | 94 | 0.0 | 0.0 | 0.00 | 0.00 | 0.00 | 72 | 918.5 | |
| 20260506112242 | 92 | 0.0 | 0.0 | 0.00 | 0.00 | 0.00 | 80 | 918.6 | |
| 20260506111742 | 91 | 0.0 | 0.0 | 0.00 | 0.00 | 0.00 | 80 | 918.7 | |
| 20260506111242 | 91 | 0.0 | 0.0 | 0.00 | 0.00 | 0.00 | 78 | 918.8 | |
| 20260506110742 | 89 | 0.0 | 0.0 | 0.00 | 0.00 | 0.00 | 79 | 918.7 | |
| 20260506110242 | 91 | 0.0 | 0.0 | 0.00 | 0.00 | 0.00 | 73 | 918.7 | |
| 20260506105742 | 91 | 0.0 | 0.0 | 0.00 | 0.00 | 0.00 | 69 | 918.7 | |
| 20260506105242 | 90 | 0.0 | 0.0 | 0.00 | 0.00 | 0.00 | 69 | 918.9 | |
| 20260506104742 | 91 | 0.0 | 0.0 | 0.00 | 0.00 | 0.00 | 76 | 918.8 | |
| 20260506104242 | 90 | 0.0 | 0.0 | 0.00 | 0.00 | 0.00 | 67 | 918.8 | |
| 20260506103742 | 89 | 0.0 | 0.0 | 0.00 | 0.00 | 0.00 | 65 | 918.9 | |
| 20260506103242 | 90 | 0.0 | 0.0 | 0.00 | 0.00 | 0.00 | 64 | 918.9 | |
| 20260506102742 | 90 | 0.0 | 0.0 | 0.00 | 0.00 | 0.00 | 67 | 919.0 | |
| 20260506102242 | 89 | 0.0 | 0.0 | 0.00 | 0.00 | 0.00 | 68 | 919.0 | |
| 20260506101742 | 89 | 0.0 | 0.0 | 0.00 | 0.00 | 0.00 | 62 | 919.0 | |
| 20260506101242 | 91 | 0.0 | 0.0 | 0.00 | 0.00 | 0.00 | 61 | 919.0 | |
| 20260506100742 | 91 | 0.0 | 0.0 | 0.00 | 0.00 | 0.00 | 62 | 919.1 | |
| 20260506100242 | 92 | 0.0 | 0.0 | 0.00 | 0.00 | 0.00 | 66 | 919.1 | |
| 20260506095742 | 91 | 0.0 | 0.0 | 0.00 | 0.00 | 0.00 | 65 | 919.1 | |
| 20260506095242 | 91 | 0.0 | 0.0 | 0.00 | 0.00 | 0.00 | 66 | 919.1 | |
| 20260506094742 | 89 | 0.0 | 0.0 | 0.00 | 0.00 | 0.00 | 64 | 919.2 | |
| 20260506094242 | 87 | 0.0 | 0.0 | 0.00 | 0.00 | 0.00 | 65 | 919.1 | |
| 20260506093742 | 87 | 0.0 | 0.0 | 0.00 | 0.00 | 0.00 | 67 | 919.1 | |
| 20260506093242 | 87 | 0.0 | 0.0 | 0.00 | 0.00 | 0.00 | 72 | 919.2 | |
| 20260506092742 | 86 | 0.0 | 0.0 | 0.00 | 0.00 | 0.00 | 78 | 919.1 | |
| 20260506092242 | 86 | 0.0 | 0.0 | 0.00 | 0.00 | 0.00 | 83 | 919.0 | |
| 20260506091742 | 86 | 0.0 | 0.0 | 0.00 | 0.00 | 0.00 | 92 | 919.1 | |
| 20260506091242 | 86 | 0.0 | 0.0 | 0.00 | 0.00 | 0.00 | 97 | 919.1 | |
| 20260506090742 | 86 | 0.0 | 0.0 | 0.00 | 0.00 | 0.00 | 100 | 919.2 | |
| 20260506090242 | 85 | 0.0 | 0.0 | 0.00 | 0.00 | 0.00 | 100 | 919.3 | |
| 20260506085742 | 85 | 0.0 | 0.0 | 0.00 | 0.00 | 0.00 | 100 | 919.3 | |
| 20260506085242 | 85 | 0.0 | 0.0 | 0.00 | 0.00 | 0.00 | 100 | 919.3 | |
| 20260506084742 | 85 | 0.0 | 0.0 | 0.00 | 0.00 | 0.00 | 100 | 919.3 | |
| 20260506084242 | 85 | 0.0 | 0.0 | 0.00 | 0.00 | 0.00 | 100 | 919.3 | |
| 20260506083742 | 84 | 0.0 | 0.0 | 0.00 | 0.00 | 0.00 | 100 | 919.3 | |
| 20260506083242 | 83 | 0.0 | 0.0 | 0.00 | 0.00 | 0.00 | 100 | 919.4 | |
| 20260506082742 | 84 | 0.0 | 0.0 | 0.00 | 0.00 | 0.00 | 100 | 919.3 | |
| 20260506082242 | 82 | 0.0 | 0.0 | 0.00 | 0.00 | 0.00 | 100 | 919.3 | |
| 20260506081742 | 82 | 0.0 | 0.0 | 0.00 | 0.00 | 0.00 | 100 | 919.3 | |
| 20260506081242 | 82 | 0.0 | 0.0 | 0.00 | 0.00 | 0.00 | 100 | 919.3 | |
| 20260506080742 | 82 | 0.0 | 0.0 | 0.00 | 0.00 | 0.00 | 100 | 919.3 | |
| 20260506080242 | 81 | 0.0 | 0.0 | 0.00 | 0.00 | 0.00 | 100 | 919.5 | |
| 20260506073242 | 79 | 0.0 | 0.0 | 0.00 | 0.00 | 0.00 | 100 | 919.6 | |
| 20260506072742 | 78 | 0.0 | 0.0 | 0.00 | 0.00 | 0.00 | 100 | 919.6 | |
| 20260506072242 | 77 | 0.0 | 0.0 | 0.00 | 0.00 | 0.00 | 100 | 919.6 | |
| 20260506071742 | 76 | 0.0 | 0.0 | 0.00 | 0.00 | 0.00 | 100 | 919.8 | |
| 20260506071242 | 75 | 0.0 | 0.0 | 0.00 | 0.00 | 0.00 | 100 | 919.8 | |
| 20260506070742 | 75 | 0.0 | 0.0 | 0.00 | 0.00 | 0.00 | 100 | 919.9 | |
| 20260506070243 | 74 | 0.0 | 0.0 | 0.00 | 0.00 | 0.00 | 100 | 920.0 | |
| 20260506062242 | 69 | 0.0 | 0.0 | 0.00 | 0.00 | 0.00 | 100 | 920.2 | |
| 20260506061742 | 69 | 0.0 | 0.0 | 0.00 | 0.00 | 0.00 | 100 | 920.2 | |
| 20260506061242 | 68 | 0.0 | 0.0 | 0.00 | 0.00 | 0.00 | 100 | 920.1 | |
| 20260506060742 | 68 | 0.0 | 0.0 | 0.00 | 0.00 | 0.00 | 100 | 920.3 | |
| 20260506060242 | 68 | 0.0 | 0.0 | 0.00 | 0.00 | 0.00 | 100 | 920.3 | |
| 20260506051242 | 63 | 0.0 | 0.0 | 0.00 | 0.00 | 0.00 | 100 | 920.5 | |
| 20260506050742 | 63 | 0.0 | 0.0 | 0.00 | 0.00 | 0.00 | 100 | 920.6 | |
| 20260506050242 | 63 | 0.0 | 0.0 | 0.00 | 0.00 | 0.00 | 100 | 920.6 | |
| 20260506044742 | 64 | 0.0 | 0.0 | 0.00 | 0.00 | 0.00 | 100 | 920.6 | |
| 20260506044242 | 63 | 0.0 | 0.0 | 0.00 | 0.00 | 0.00 | 100 | 920.5 | |
| 20260506043742 | 63 | 0.0 | 0.0 | 0.00 | 0.00 | 0.00 | 100 | 920.6 | |
| 20260506043242 | 63 | 0.0 | 0.0 | 0.00 | 0.00 | 0.00 | 100 | 920.5 | |
| 20260506042742 | 62 | 0.0 | 0.0 | 0.00 | 0.00 | 0.00 | 100 | 920.5 | |
| 20260506042242 | 62 | 0.0 | 0.0 | 0.00 | 0.00 | 0.00 | 100 | 920.5 | |
| 20260506041742 | 62 | 0.0 | 0.0 | 0.00 | 0.00 | 0.00 | 100 | 920.5 | |
| 20260506041242 | 62 | 0.0 | 0.0 | 0.00 | 0.00 | 0.00 | 100 | 920.4 | |
| 20260506040742 | 62 | 0.0 | 0.0 | 0.00 | 0.00 | 0.00 | 100 | 920.4 | |
| 20260506040242 | 62 | 0.0 | 0.0 | 0.00 | 0.00 | 0.00 | 100 | 920.2 | |
| 20260506035742 | 62 | 0.0 | 0.0 | 0.00 | 0.00 | 0.00 | 100 | 920.2 | |
| 20260506035242 | 62 | 0.0 | 0.0 | 0.00 | 0.00 | 0.00 | 100 | 920.2 | |
| 20260506034742 | 62 | 0.0 | 0.0 | 0.00 | 0.00 | 0.00 | 100 | 920.2 | |
| 20260506034242 | 63 | 0.0 | 0.0 | 0.00 | 0.00 | 0.00 | 100 | 920.3 | |
| 20260506033742 | 62 | 0.0 | 0.0 | 0.00 | 0.00 | 0.00 | 100 | 920.3 | |
| 20260506033242 | 63 | 0.0 | 0.0 | 0.00 | 0.00 | 0.00 | 100 | 920.3 | |
| 20260506032742 | 62 | 0.0 | 0.0 | 0.00 | 0.00 | 0.00 | 100 | 920.3 | |
| 20260506032242 | 62 | 0.0 | 0.0 | 0.00 | 0.00 | 0.00 | 100 | 920.3 | |
| 20260506031742 | 62 | 0.0 | 0.0 | 0.00 | 0.00 | 0.00 | 100 | 920.2 | |
| 20260506031242 | 62 | 0.0 | 0.0 | 0.00 | 0.00 | 0.00 | 100 | 920.2 | |
| 20260506030742 | 62 | 0.0 | 0.0 | 0.00 | 0.00 | 0.00 | 100 | 920.3 | |
| 20260506030242 | 63 | 0.0 | 0.0 | 0.00 | 0.00 | 0.00 | 100 | 920.3 | |
| 20260506025742 | 63 | 0.0 | 0.0 | 0.00 | 0.00 | 0.00 | 100 | 920.3 | |
| 20260506025242 | 63 | 0.0 | 0.0 | 0.00 | 0.00 | 0.00 | 100 | 920.2 | |
| 20260506024742 | 63 | 0.0 | 0.0 | 0.00 | 0.00 | 0.00 | 100 | 920.1 | |
| 20260506024242 | 63 | 0.0 | 0.0 | 0.00 | 0.00 | 0.00 | 100 | 920.1 | |
| 20260506023742 | 63 | 0.0 | 0.0 | 0.00 | 0.00 | 0.00 | 100 | 920.1 | |
| 20260506023242 | 63 | 0.0 | 0.0 | 0.00 | 0.00 | 0.00 | 100 | 920.1 | |
| 20260506022742 | 63 | 0.0 | 0.0 | 0.00 | 0.00 | 0.00 | 100 | 920.1 | |
| 20260506022242 | 64 | 0.0 | 0.0 | 0.00 | 0.00 | 0.00 | 100 | 920.1 | |
| 20260506021742 | 63 | 0.0 | 0.0 | 0.00 | 0.00 | 0.00 | 100 | 920.1 | |
| 20260506021242 | 64 | 0.0 | 0.0 | 0.00 | 0.00 | 0.00 | 100 | 920.0 | |
| 20260506020742 | 64 | 0.0 | 0.0 | 0.00 | 0.00 | 0.00 | 100 | 920.0 | |
| 20260506020242 | 64 | 0.0 | 0.0 | 0.00 | 0.00 | 0.00 | 100 | 920.0 | |
| 20260506015742 | 64 | 0.0 | 0.0 | 0.00 | 0.00 | 0.00 | 100 | 920.0 | |
| 20260506015242 | 64 | 0.0 | 0.0 | 0.00 | 0.00 | 0.00 | 100 | 919.9 | |
| 20260506014742 | 64 | 0.0 | 0.0 | 0.00 | 0.00 | 0.00 | 100 | 919.9 | |
| 20260506014242 | 64 | 0.0 | 0.0 | 0.00 | 0.00 | 0.00 | 100 | 919.8 | |
| 20260506013742 | 64 | 0.0 | 0.0 | 0.00 | 0.00 | 0.00 | 100 | 919.8 | |
| 20260506013242 | 65 | 0.0 | 0.0 | 0.00 | 0.00 | 0.00 | 100 | 919.9 | |
| 20260506012742 | 65 | 0.0 | 0.0 | 0.00 | 0.00 | 0.00 | 100 | 919.8 | |
| 20260506011709 | 65 | 0.0 | 0.0 | 0.00 | 0.00 | 0.00 | 100 | 919.8 | |
| 20260506011209 | 65 | 0.0 | 0.0 | 0.00 | 0.00 | 0.00 | 100 | 919.8 | |
| 20260506010709 | 65 | 0.0 | 0.0 | 0.00 | 0.00 | 0.00 | 100 | 919.8 | |
| 20260506010209 | 65 | 0.0 | 0.0 | 0.00 | 0.00 | 0.00 | 100 | 919.7 | |
| 20260506005709 | 66 | 0.0 | 0.0 | 0.00 | 0.00 | 0.00 | 100 | 919.6 | |
| 20260506005209 | 66 | 0.0 | 0.0 | 0.00 | 0.00 | 0.00 | 100 | 919.5 | |
| 20260506004709 | 66 | 0.0 | 0.0 | 0.00 | 0.00 | 0.00 | 100 | 919.5 | |
| 20260506004209 | 66 | 0.0 | 0.0 | 0.00 | 0.00 | 0.00 | 100 | 919.6 | |
| 20260506003709 | 66 | 0.0 | 0.0 | 0.00 | 0.00 | 0.00 | 100 | 919.5 | |
| 20260506003209 | 66 | 0.0 | 0.0 | 0.00 | 0.00 | 0.00 | 100 | 919.5 | |
| 20260506002709 | 66 | 0.0 | 0.0 | 0.00 | 0.00 | 0.00 | 100 | 919.5 | |
| 20260506002209 | 67 | 0.0 | 0.0 | 0.00 | 0.00 | 0.00 | 100 | 919.5 | |
| 20260506001709 | 67 | 0.0 | 0.0 | 0.00 | 0.00 | 0.00 | 100 | 919.5 | |
| 20260506001209 | 67 | 0.0 | 0.0 | 0.00 | 0.00 | 0.00 | 100 | 919.5 | |
| 20260506000709 | 68 | 0.0 | 0.0 | 0.00 | 0.00 | 0.00 | 100 | 919.5 | |
| 20260506000211 | 67 | 0.0 | 0.0 | 0.00 | 0.00 | 0.00 | 100 | 919.5 | |
| 20260505235709 | 68 | 0.0 | 0.0 | 0.00 | 0.00 | 0.00 | 100 | 919.4 | |
| 20260505235209 | 68 | 0.0 | 0.0 | 0.00 | 0.00 | 0.00 | 100 | 919.4 | |
| 20260505234709 | 68 | 0.0 | 0.0 | 0.00 | 0.00 | 0.00 | 100 | 919.4 | |
| 20260505234209 | 68 | 0.0 | 0.0 | 0.00 | 0.00 | 0.00 | 100 | 919.5 | |
| 20260505233709 | 68 | 0.0 | 0.0 | 0.00 | 0.00 | 0.00 | 100 | 919.5 | |
| 20260505233209 | 68 | 0.0 | 0.0 | 0.00 | 0.00 | 0.00 | 100 | 919.6 | |
| 20260505232709 | 69 | 0.0 | 0.0 | 0.00 | 0.00 | 0.00 | 100 | 919.5 | |
| 20260505232209 | 69 | 0.0 | 0.0 | 0.00 | 0.00 | 0.00 | 100 | 919.6 | |
| 20260505231709 | 69 | 0.0 | 0.0 | 0.00 | 0.00 | 0.00 | 100 | 919.6 | |
| 20260505231209 | 69 | 0.0 | 0.0 | 0.00 | 0.00 | 0.00 | 100 | 919.6 | |
| 20260505230709 | 69 | 0.0 | 0.0 | 0.00 | 0.00 | 0.00 | 100 | 919.6 | |
| 20260505230209 | 69 | 0.0 | 0.0 | 0.00 | 0.00 | 0.00 | 100 | 919.6 | |
| 20260505225709 | 69 | 0.0 | 0.0 | 0.00 | 0.00 | 0.00 | 100 | 919.6 | |
| 20260505225209 | 70 | 0.0 | 0.0 | 0.00 | 0.00 | 0.00 | 100 | 919.5 | |
| 20260505224709 | 70 | 0.0 | 0.0 | 0.00 | 0.00 | 0.00 | 100 | 919.6 | |
| 20260505224209 | 69 | 0.0 | 0.0 | 0.00 | 0.00 | 0.00 | 100 | 919.6 | |
| 20260505223709 | 70 | 0.0 | 0.0 | 0.00 | 0.00 | 0.00 | 100 | 919.5 | |
| 20260505223209 | 70 | 0.0 | 0.0 | 0.00 | 0.00 | 0.00 | 100 | 919.6 | |
| 20260505222709 | 70 | 0.0 | 0.0 | 0.00 | 0.00 | 0.00 | 100 | 919.5 | |
| 20260505222209 | 70 | 0.0 | 0.0 | 0.00 | 0.00 | 0.00 | 100 | 919.5 | |
| 20260505221709 | 70 | 0.0 | 0.0 | 0.00 | 0.00 | 0.00 | 100 | 919.5 | |
| 20260505221209 | 71 | 0.0 | 0.0 | 0.00 | 0.00 | 0.00 | 100 | 919.4 | |
| 20260505220709 | 71 | 0.0 | 0.0 | 0.00 | 0.00 | 0.00 | 100 | 919.4 | |
| 20260505220209 | 71 | 0.0 | 0.0 | 0.00 | 0.00 | 0.00 | 100 | 919.3 | |
| 20260505215709 | 71 | 0.0 | 0.0 | 0.00 | 0.00 | 0.00 | 100 | 919.2 | |
| 20260505215209 | 71 | 0.0 | 0.0 | 0.00 | 0.00 | 0.00 | 100 | 919.2 | |
| 20260505214709 | 72 | 0.0 | 0.0 | 0.00 | 0.00 | 0.00 | 100 | 919.1 | |
| 20260505214209 | 72 | 0.0 | 0.0 | 0.00 | 0.00 | 0.00 | 100 | 919.1 | |
| 20260505213709 | 72 | 0.0 | 0.0 | 0.00 | 0.00 | 0.00 | 100 | 919.1 | |
| 20260505213209 | 73 | 0.0 | 0.0 | 0.00 | 0.00 | 0.00 | 100 | 919.1 | |
| 20260505212709 | 72 | 0.0 | 0.0 | 0.00 | 0.00 | 0.00 | 100 | 919.0 | |
| 20260505212209 | 73 | 0.0 | 0.0 | 0.00 | 0.00 | 0.00 | 100 | 919.0 | |
| 20260505211709 | 73 | 0.0 | 0.0 | 0.00 | 0.00 | 0.00 | 100 | 919.0 | |
| 20260505211209 | 73 | 0.0 | 0.0 | 0.00 | 0.00 | 0.00 | 100 | 919.0 | |
| 20260505210709 | 73 | 0.0 | 0.0 | 0.00 | 0.00 | 0.00 | 100 | 918.9 | |
| 20260505210209 | 74 | 0.0 | 0.0 | 0.00 | 0.00 | 0.00 | 100 | 918.9 | |
| 20260505205709 | 74 | 0.0 | 0.0 | 0.00 | 0.00 | 0.00 | 100 | 918.9 | |
| 20260505205209 | 74 | 0.0 | 0.0 | 0.00 | 0.00 | 0.00 | 100 | 918.8 | |
| 20260505204709 | 74 | 0.0 | 0.0 | 0.00 | 0.00 | 0.00 | 100 | 918.8 | |
| 20260505204209 | 75 | 0.0 | 0.0 | 0.00 | 0.00 | 0.00 | 100 | 918.7 | |
| 20260505203709 | 75 | 0.0 | 0.0 | 0.00 | 0.00 | 0.00 | 100 | 918.8 | |
| 20260505203209 | 75 | 0.0 | 0.0 | 0.00 | 0.00 | 0.00 | 100 | 918.7 | |
| 20260505202709 | 75 | 0.0 | 0.0 | 0.00 | 0.00 | 0.00 | 100 | 918.7 | |
| 20260505202209 | 76 | 0.0 | 0.0 | 0.00 | 0.00 | 0.00 | 100 | 918.6 | |
| 20260505201709 | 75 | 0.0 | 0.0 | 0.00 | 0.00 | 0.00 | 100 | 918.6 | |
| 20260505201209 | 76 | 0.0 | 0.0 | 0.00 | 0.00 | 0.00 | 100 | 918.7 | |
| 20260505200709 | 76 | 0.0 | 0.0 | 0.00 | 0.00 | 0.00 | 100 | 918.7 | |
| 20260505200209 | 76 | 0.0 | 0.0 | 0.00 | 0.00 | 0.00 | 100 | 918.7 | |
| 20260505195709 | 76 | 0.0 | 0.0 | 0.00 | 0.00 | 0.00 | 100 | 918.7 | |
| 20260505195209 | 77 | 0.0 | 0.0 | 0.00 | 0.00 | 0.00 | 100 | 918.7 | |
| 20260505194709 | 77 | 0.0 | 0.0 | 0.00 | 0.00 | 0.00 | 100 | 918.6 | |
| 20260505194209 | 77 | 0.0 | 0.0 | 0.00 | 0.00 | 0.00 | 100 | 918.6 | |
| 20260505193709 | 77 | 0.0 | 0.0 | 0.00 | 0.00 | 0.00 | 100 | 918.6 | |
| 20260505193209 | 77 | 0.0 | 0.0 | 0.00 | 0.00 | 0.00 | 100 | 918.5 | |
| 20260505192709 | 77 | 0.0 | 0.0 | 0.00 | 0.00 | 0.00 | 100 | 918.4 | |
| 20260505192209 | 77 | 0.0 | 0.0 | 0.00 | 0.00 | 0.00 | 100 | 918.4 | |
| 20260505191709 | 78 | 0.0 | 0.0 | 0.00 | 0.00 | 0.00 | 100 | 918.4 | |
| 20260505191209 | 79 | 0.0 | 0.0 | 0.00 | 0.00 | 0.00 | 100 | 918.5 | |
| 20260505190709 | 79 | 0.0 | 0.0 | 0.00 | 0.00 | 0.00 | 100 | 918.5 | |
| 20260505190209 | 80 | 0.0 | 0.0 | 0.00 | 0.00 | 0.00 | 100 | 918.4 | |
| 20260505185709 | 80 | 0.0 | 0.0 | 0.00 | 0.00 | 0.00 | 100 | 918.3 | |
| 20260505184736 | 80 | 0.0 | 0.0 | 0.00 | 0.00 | 0.00 | 100 | 918.3 | |
| 20260505184236 | 81 | 0.0 | 0.0 | 0.00 | 0.00 | 0.00 | 100 | 918.2 | |
| 20260505183736 | 81 | 0.0 | 0.0 | 0.00 | 0.00 | 0.00 | 100 | 918.2 | |
| 20260505183236 | 81 | 0.0 | 0.0 | 0.00 | 0.00 | 0.00 | 100 | 918.2 | |
| 20260505182736 | 82 | 0.0 | 0.0 | 0.00 | 0.00 | 0.00 | 100 | 918.1 | |
| 20260505182236 | 81 | 0.0 | 0.0 | 0.00 | 0.00 | 0.00 | 100 | 918.0 | |
| 20260505181736 | 81 | 0.0 | 0.0 | 0.00 | 0.00 | 0.00 | 100 | 918.0 | |
| 20260505181236 | 82 | 0.0 | 0.0 | 0.00 | 0.00 | 0.00 | 100 | 917.8 | |
| 20260505180736 | 83 | 0.0 | 0.0 | 0.00 | 0.00 | 0.00 | 100 | 917.9 | |
| 20260505180236 | 83 | 0.0 | 0.0 | 0.00 | 0.00 | 0.00 | 100 | 917.9 | |
| 20260505175736 | 83 | 0.0 | 0.0 | 0.00 | 0.00 | 0.00 | 100 | 917.9 | |
| 20260505175236 | 84 | 0.0 | 0.0 | 0.00 | 0.00 | 0.00 | 100 | 918.0 | |
| 20260505174736 | 84 | 0.0 | 0.0 | 0.00 | 0.00 | 0.00 | 100 | 918.0 | |
| 20260505174236 | 85 | 0.0 | 0.0 | 0.00 | 0.00 | 0.00 | 98 | 918.0 | |
| 20260505173736 | 85 | 0.0 | 0.0 | 0.00 | 0.00 | 0.00 | 100 | 918.0 | |
| 20260505173236 | 85 | 0.0 | 0.0 | 0.00 | 0.00 | 0.00 | 98 | 918.0 | |
| 20260505172736 | 86 | 0.0 | 0.0 | 0.00 | 0.00 | 0.00 | 94 | 918.1 | |
| 20260505172236 | 86 | 0.0 | 0.0 | 0.00 | 0.00 | 0.00 | 93 | 918.0 | |
| 20260505171736 | 87 | 0.0 | 0.0 | 0.00 | 0.00 | 0.00 | 90 | 918.0 | |
| 20260505171236 | 87 | 0.0 | 0.0 | 0.00 | 0.00 | 0.00 | 89 | 918.0 | |
| 20260505170736 | 87 | 0.0 | 0.0 | 0.00 | 0.00 | 0.00 | 90 | 918.0 | |
| 20260505170236 | 90 | 0.0 | 0.0 | 0.00 | 0.00 | 0.00 | 81 | 918.0 | |
| 20260505165736 | 90 | 0.0 | 0.0 | 0.00 | 0.00 | 0.00 | 83 | 918.0 |